Location: Berg
(48.4333°N, 13.9167°E)
Time: 23:09:40
(UTC+00:00)

Cosmos 1689 Rocket - Pass Details

Date: 18 September 2020
Orbit: 362 x 377 km, 97.5° (Epoch: 31 October)

Event Time Altitude Azimuth Distance (km) Brightness Sun altitude
Rises 17:35:32 0° 5° (N) 2,278 6.0 -5.1°
Reaches altitude 10° 17:37:36 10° 356° (N) 1,417 5.1 -5.4°
Maximum altitude 17:40:22 34° 289° (WNW) 660 4.2 -5.8°
Drops below altitude 10° 17:43:06 10° 223° (SW) 1,400 5.4 -6.3°
Sets 17:45:08 0° 213° (SSW) 2,244 6.3 -6.6°
